GFSSGP_sfc_30mbdewp_006.txt.gz
Dewpoint
55 50 45 39 30 28 24 23 27 27 30 30 28 29 34 34 39 35 59 60 61 62 66 69 70 70 68 67 66 66 65 62 65 63 58 59 60 62 63 62 61 59 59 58 59 59 58 59 59
53 46 42 35 28 24 22 26 23 28 30 28 31 33 33 35 43 49 53 61 61 62 67 67 71 70 68 67 67 66 66 62 62 62 59 59 60 62 63 61 60 59 60 59 59 61 62 61 62
50 43 36 32 28 24 24 26 23 31 32 29 31 36 37 38 49 50 57 61 61 63 66 68 71 70 69 67 67 66 65 63 61 60 60 61 61 62 63 59 59 61 60 60 60 61 61 61 62
46 41 37 30 26 27 28 26 29 30 31 32 29 30 38 44 49 53 59 63 61 63 66 71 71 70 69 69 67 66 64 62 61 61 62 62 63 63 61 59 61 63 62 61 62 62 63 63 63
45 39 30 30 27 27 30 30 31 29 30 30 31 29 31 46 52 55 61 62 61 63 66 70 71 71 70 69 68 67 65 63 62 62 62 62 64 65 65 64 63 63 63 62 63 63 64 64 63
40 38 29 25 26 29 32 31 31 30 30 30 30 30 31 47 53 58 62 62 62 64 66 68 71 71 70 69 69 67 66 64 62 62 62 63 65 65 64 65 64 64 64 65 64 65 65 65 65
37 34 26 26 26 27 30 32 31 29 29 29 31 29 32 40 54 61 61 63 64 65 66 66 68 67 70 69 68 67 66 65 63 62 63 66 65 65 65 65 66 65 66 65 65 65 66 66 66
43 36 30 31 27 27 30 33 32 31 28 30 32 28 29 42 56 61 61 62 63 64 64 64 65 64 68 68 67 68 67 66 65 65 66 66 65 64 63 65 66 66 66 66 66 66 64 63 61
47 35 29 29 30 29 34 32 34 33 31 33 33 34 37 44 55 59 60 61 62 63 64 64 64 65 66 67 67 67 67 66 66 65 65 62 58 58 60 63 64 66 66 65 63 58 54 52 50
40 34 30 31 34 32 33 34 33 34 33 33 35 36 38 44 50 54 56 57 60 61 63 65 65 65 65 66 66 64 62 64 62 62 62 59 58 56 60 62 63 63 63 59 54 48 44 43 44
40 35 34 39 39 38 36 37 37 35 32 34 34 35 38 39 43 48 50 52 57 60 62 65 67 66 65 65 65 65 62 62 63 62 61 58 58 59 59 60 61 62 59 54 49 45 41 38 34
38 39 38 39 42 43 42 42 41 38 34 35 38 38 41 42 41 40 46 49 54 59 62 64 66 67 66 65 64 63 62 62 62 62 60 58 58 60 60 61 59 54 49 46 42 39 33 28 24
40 37 41 42 44 43 42 40 41 40 41 43 43 44 44 43 42 40 41 47 51 56 60 62 65 66 67 67 64 63 61 62 62 62 59 59 60 61 57 49 46 43 40 37 34 28 23 21 21
39 41 40 40 40 40 39 39 39 39 40 40 40 40 42 42 41 40 40 41 49 52 56 60 63 66 66 67 65 63 61 61 62 61 60 61 61 59 46 41 39 36 30 24 23 23 23 20 18
41 37 35 35 36 37 39 36 35 35 36 36 38 37 37 38 40 41 41 40 40 44 50 55 61 64 66 67 66 63 62 63 62 61 61 62 58 50 41 36 32 28 26 24 23 20 21 20 18
36 36 32 33 36 34 34 28 30 39 37 36 37 36 35 36 37 39 40 41 41 40 41 44 55 62 65 67 65 64 62 62 61 61 62 57 49 42 35 31 28 27 25 23 21 18 19 19 19
32 26 30 29 34 34 34 31 33 34 37 37 35 36 37 38 37 37 39 40 41 40 40 43 47 56 62 65 65 64 63 63 61 57 52 46 40 34 30 29 27 24 22 21 17 17 18 19 18
22 28 26 24 29 34 31 30 31 34 34 33 33 35 37 38 39 39 38 40 41 41 41 43 49 55 60 65 64 64 61 56 52 49 45 39 34 31 29 27 24 22 22 18 18 18 19 18 16
27 27 26 27 30 30 28 28 29 30 31 31 32 33 33 35 38 39 40 41 42 42 45 47 52 58 62 62 58 55 52 48 43 38 35 32 30 29 28 25 23 22 20 19 17 18 17 17 17
29 26 25 26 28 28 26 26 27 27 27 28 29 30 31 32 34 36 39 39 41 42 48 51 55 60 62 59 59 58 53 47 40 31 30 30 29 29 27 25 23 21 20 20 19 19 16 16 17
29 28 26 26 26 27 27 24 20 20 21 22 25 26 27 27 30 33 35 36 40 43 48 54 57 60 59 59 58 53 44 35 30 28 28 27 26 24 25 23 21 22 22 20 19 18 15 13 16
26 27 27 28 26 23 25 18 18 19 19 21 23 25 26 27 28 30 33 33 36 42 48 56 59 58 58 56 50 46 48 43 35 27 27 25 23 22 21 21 20 19 19 19 14 15 16 16 15
27 29 27 27 26 25 23 25 18 21 20 21 21 22 22 25 27 30 31 32 34 40 51 58 58 57 57 52 51 51 49 45 29 26 24 23 22 21 20 19 18 17 17 17 16 17 16 16 15
30 29 28 27 25 22 21 19 17 16 17 16 19 21 20 25 29 31 36 36 36 41 53 57 57 56 52 52 53 52 43 31 25 24 23 21 21 19 17 17 17 16 16 17 17 19 19 17 15
30 27 20 20 21 15 13 15 17 17 19 19 19 17 21 24 28 30 34 36 39 47 54 56 56 52 52 52 52 46 36 29 27 24 22 21 19 17 16 15 14 15 17 18 18 18 17 16 15
28 26 19 10 6 9 14 16 14 17 20 21 21 21 20 24 25 22 30 36 41 48 52 54 54 51 51 48 46 39 32 31 25 24 23 21 20 17 15 14 13 13 14 16 17 17 17 16 15
28 27 27 23 24 22 16 19 18 19 20 20 19 18 28 29 31 30 28 39 44 48 51 52 52 51 49 47 39 36 33 29 27 24 23 21 18 15 14 13 13 14 14 15 16 14 13 14 16
30 30 25 27 16 13 12 15 12 13 13 14 15 23 27 30 33 33 31 40 45 49 50 50 50 49 44 39 36 31 31 28 24 22 20 18 14 12 13 13 13 14 15 15 14 13 14 15 16
29 28 30 28 24 15 11 8 12 15 20 25 26 26 30 33 35 36 32 41 47 49 50 49 47 45 41 37 31 30 24 23 21 20 18 15 12 12 12 12 12 14 14 13 12 13 15 16 17
25 25 26 24 22 26 19 16 15 17 16 24 25 28 30 36 38 38 36 45 48 48 48 46 45 43 39 32 30 28 23 20 18 15 14 12 11 11 11 12 14 13 12 11 11 14 16 17 17

GFSSGP_sfc_30mbdewp_012.txt.gz
Dewpoint
61 54 48 42 36 32 28 27 24 24 24 26 30 29 29 31 39 47 58 58 65 68 69 71 70 69 67 66 66 64 64 66 63 62 64 64 65 62 60 59 60 58 59 60 61 61 62 62 62
59 51 43 40 33 29 26 28 24 21 29 29 28 28 29 33 51 53 57 58 65 67 68 69 70 69 67 67 66 63 66 64 62 60 60 62 63 61 61 60 59 58 58 60 61 61 61 62 62
57 49 39 35 33 28 26 26 25 26 28 28 29 30 32 41 47 54 58 57 64 66 66 69 70 69 68 67 66 63 63 64 62 61 61 62 63 62 61 62 61 59 60 61 62 62 63 63 63
46 43 38 31 29 29 28 27 26 26 26 29 30 29 37 45 49 55 57 57 61 65 67 71 70 69 69 68 67 66 62 61 61 63 63 63 63 62 60 63 62 61 62 62 63 64 64 63 63
45 42 34 30 28 28 27 26 27 26 26 27 30 29 37 48 53 55 56 56 60 65 68 70 70 69 69 68 67 65 62 62 63 62 63 65 65 65 61 64 63 63 63 63 64 65 65 65 65
40 37 31 29 29 28 27 25 27 28 27 26 26 27 37 49 53 56 57 56 59 68 68 70 70 69 69 69 68 66 64 62 62 62 63 65 65 65 64 64 64 64 65 64 66 66 66 66 65
40 36 32 29 27 25 24 26 28 28 27 26 27 25 34 50 55 57 57 55 58 67 68 68 69 68 69 69 68 67 65 63 63 64 65 65 65 66 66 65 65 66 64 66 66 65 65 64 62
40 38 35 30 28 25 26 25 29 29 28 28 30 27 32 53 56 57 57 57 58 62 68 68 68 68 68 69 68 67 66 65 64 64 67 65 63 67 67 67 66 65 66 65 64 63 61 58 54
41 38 34 32 29 29 28 26 28 30 30 29 29 29 41 51 55 56 56 58 57 60 66 67 68 67 67 67 68 67 67 65 65 67 66 64 62 62 65 65 66 66 65 62 59 54 51 52 50
39 39 37 35 30 29 33 28 29 30 30 29 29 30 39 43 49 55 55 56 57 59 60 65 67 66 67 67 66 66 66 65 64 64 64 62 59 61 61 64 65 65 62 59 54 48 46 42 40
39 37 34 32 30 32 36 36 33 30 31 31 29 28 34 37 42 46 52 55 56 58 59 60 61 64 67 66 65 64 64 64 62 61 61 58 58 60 61 62 63 63 60 55 52 48 38 33 29
35 36 35 34 34 34 36 37 35 33 32 33 33 34 34 37 38 41 44 46 53 57 59 60 61 64 66 66 65 64 62 63 62 61 59 55 57 57 59 61 62 57 55 46 42 36 29 27 24
34 34 33 33 34 35 37 37 38 38 38 38 37 36 37 38 38 39 40 42 44 55 58 61 62 63 64 66 65 62 61 62 61 60 58 55 58 58 58 55 53 47 40 35 30 28 28 26 23
36 36 36 37 35 36 37 37 38 36 36 36 37 38 38 39 40 40 40 40 40 48 56 62 62 63 65 64 65 63 62 61 61 60 58 56 58 58 51 48 44 37 31 29 27 24 25 24 22
37 37 37 36 36 36 36 34 35 37 37 36 35 36 37 37 39 39 40 40 40 42 52 58 62 65 65 64 64 63 62 61 60 60 58 57 57 52 48 44 38 32 30 28 25 24 26 25 24
37 37 34 31 34 34 35 31 32 33 35 34 34 34 33 35 37 37 37 39 40 41 47 54 60 64 65 64 64 64 63 62 61 61 57 60 54 49 44 40 34 31 29 27 25 25 26 25 23
34 30 31 31 33 32 31 30 32 32 31 32 33 32 33 33 33 34 35 36 38 41 41 50 56 61 64 64 65 66 64 63 62 61 61 57 49 42 38 35 31 29 28 26 26 26 25 22 21
27 29 29 27 28 29 29 29 30 30 29 29 31 33 33 33 33 35 35 35 35 37 40 42 51 57 64 65 64 65 63 63 63 61 59 49 42 37 36 33 30 29 29 28 27 25 25 21 21
30 29 26 24 24 23 23 23 25 26 26 25 26 28 30 32 32 33 35 37 38 36 40 42 43 51 63 64 64 65 62 62 61 56 51 44 40 38 33 31 31 31 28 27 26 26 22 21 21
30 29 27 26 25 25 25 25 26 26 26 25 25 25 26 28 29 31 32 37 38 39 38 42 43 45 52 63 64 65 63 60 54 51 45 41 37 35 33 32 31 29 28 27 25 22 23 22 21
28 27 26 25 26 26 25 24 24 23 26 26 26 26 26 26 27 28 29 32 38 39 40 43 43 47 49 64 64 58 52 49 45 39 35 34 34 32 33 31 31 31 30 26 24 22 21 21 22
25 27 26 25 25 23 26 22 21 20 17 21 22 23 23 24 25 27 27 28 32 39 40 42 44 46 56 63 59 57 55 49 42 39 38 32 32 32 31 31 30 29 28 24 21 21 20 22 19
26 29 27 27 26 25 24 23 20 18 18 16 16 18 22 23 25 25 26 27 28 30 41 43 44 50 62 61 59 55 51 48 39 35 32 30 30 30 29 29 28 27 24 21 22 22 20 20 20
29 28 27 26 25 21 22 20 11 14 16 16 12 13 18 20 23 24 24 29 31 30 33 46 44 55 61 60 60 55 51 43 36 32 29 28 28 28 28 28 26 25 24 23 23 22 22 20 19
29 26 23 22 22 15 17 17 14 15 16 15 14 16 15 16 19 19 23 31 31 32 34 42 47 55 59 59 59 57 52 40 34 32 31 27 26 26 27 26 25 24 24 24 23 23 22 20 19
29 26 21 15 16 18 19 16 15 15 15 15 16 16 17 19 20 24 32 34 35 36 38 42 49 56 59 58 57 55 44 37 35 34 30 26 25 25 27 24 23 22 22 22 22 22 21 20 20
27 25 27 24 22 20 18 15 16 16 17 17 16 16 18 19 20 26 31 35 36 36 40 43 51 56 57 56 55 52 42 40 35 33 30 25 25 24 24 22 20 19 19 19 20 20 19 17 19
28 27 25 25 17 14 14 13 13 15 15 18 18 20 23 25 28 30 33 37 38 38 39 46 55 55 56 54 54 44 42 38 35 31 28 26 24 21 21 19 18 18 18 17 18 17 16 16 18
28 27 28 26 26 20 16 15 17 18 17 18 21 25 23 26 27 26 35 38 39 39 40 45 54 55 54 51 43 39 37 34 31 28 25 23 21 20 19 18 17 17 17 16 15 15 16 16 18
28 27 27 24 20 23 22 20 23 22 20 19 19 21 23 24 26 32 38 38 40 39 45 48 52 52 42 39 36 33 33 29 28 24 21 19 19 18 18 17 17 17 15 13 13 13 15 16 17

GFSSGP_sfc_30mbdewp_015.txt.gz
Dewpoint
62 59 54 46 36 35 30 30 32 25 25 29 28 28 28 32 35 43 58 63 68 70 71 70 70 68 67 66 64 64 65 66 67 67 67 66 64 62 60 60 58 60 60 61 62 63 63 63 62
60 55 45 40 34 31 30 31 29 24 28 28 28 26 28 47 52 56 60 68 68 70 70 70 70 69 67 66 64 67 65 63 63 63 64 64 62 60 59 58 58 59 60 60 60 61 61 62 61
60 55 41 37 34 30 29 29 27 28 28 28 30 29 31 47 54 56 59 67 68 69 69 70 70 69 67 66 64 67 64 62 63 64 63 64 62 61 62 59 59 60 61 63 63 63 63 63 63
51 45 40 33 31 32 30 28 27 26 27 29 30 29 41 51 52 57 60 67 67 67 68 71 70 69 68 67 65 64 65 62 62 63 63 64 63 62 63 62 61 62 63 63 65 65 64 64 64
49 43 35 32 29 30 30 30 28 27 26 27 30 29 43 54 56 57 58 66 66 66 69 70 70 69 69 68 67 63 62 62 64 64 64 64 64 62 64 63 63 63 64 63 65 65 65 66 65
42 40 34 33 32 32 30 29 27 27 28 27 27 26 37 54 56 56 56 62 66 67 68 69 69 69 69 69 67 65 64 64 63 64 65 65 65 64 64 64 64 65 63 65 66 66 66 66 65
40 37 32 32 30 30 30 29 27 28 27 27 27 25 46 53 56 57 56 66 67 68 68 69 69 69 69 69 67 65 65 64 64 65 66 65 67 66 65 65 65 65 65 66 66 65 65 64 61
41 40 36 34 31 29 30 28 28 29 28 29 30 27 50 54 57 57 56 64 67 67 68 69 69 68 69 69 68 66 65 64 65 66 66 64 66 67 67 66 67 65 66 65 64 63 61 58 53
42 39 36 36 35 32 32 32 29 31 29 29 29 30 50 55 57 57 56 58 67 67 67 68 68 68 68 68 68 67 65 65 65 67 65 63 64 67 66 66 66 66 66 63 60 56 54 52 50
39 37 38 38 35 33 32 35 35 30 29 29 30 35 48 53 55 55 57 56 60 66 67 67 67 67 67 67 67 66 66 65 65 66 65 63 61 64 65 65 65 66 64 61 57 50 45 39 37
38 37 39 39 37 34 36 35 37 34 30 30 29 30 41 46 52 55 56 57 57 60 66 67 67 67 67 66 66 66 65 64 64 64 63 62 60 62 62 64 64 64 62 57 53 46 35 28 26
37 37 37 36 37 35 34 37 37 37 34 38 36 35 35 37 44 50 54 56 57 58 60 66 67 66 67 66 65 64 64 63 62 62 62 58 60 60 60 62 62 62 59 47 40 30 27 25 23
35 35 36 36 35 35 35 35 37 37 38 39 39 38 38 37 38 40 44 45 53 58 59 60 64 66 66 65 65 64 63 63 62 61 60 56 56 57 59 60 60 45 38 31 28 27 25 24 22
35 35 37 37 37 37 36 36 37 37 38 37 36 36 37 38 39 39 40 40 41 55 59 60 63 65 66 65 65 64 62 62 62 61 57 55 57 58 56 50 41 33 29 28 25 24 24 24 24
38 36 37 37 38 37 36 35 36 38 39 38 38 37 36 36 38 38 40 40 41 46 59 61 61 64 65 65 65 63 62 62 61 60 56 55 58 51 47 40 33 30 28 25 24 26 26 24 23
36 36 34 35 35 37 36 32 34 36 36 36 37 37 36 36 36 38 38 39 39 41 55 61 62 64 64 65 65 63 62 62 61 60 58 57 54 50 44 37 32 31 28 25 25 25 25 22 21
35 31 33 34 33 34 34 32 33 34 33 32 34 35 35 35 35 35 37 38 38 39 41 60 62 63 64 64 65 64 62 62 61 60 59 54 50 46 42 35 30 28 27 27 26 26 23 20 19
29 32 30 29 30 31 30 31 32 32 30 29 29 32 33 33 34 34 34 35 37 37 39 48 61 63 64 64 64 65 63 63 62 61 58 51 46 41 37 32 29 29 27 27 26 25 24 21 20
32 30 29 28 28 25 24 25 25 25 25 25 26 27 28 29 31 34 33 35 35 35 35 39 55 63 64 64 63 64 63 63 62 61 52 45 40 37 33 30 29 30 27 27 25 24 21 20 21
31 30 29 27 26 26 26 25 26 26 26 26 26 26 26 27 29 30 31 32 34 36 38 39 47 61 64 64 64 63 62 62 58 53 47 43 40 36 32 31 31 29 28 25 23 24 23 22 21
29 28 28 27 27 26 25 21 23 25 26 26 27 27 26 26 26 27 28 29 30 33 37 39 42 58 63 64 63 60 55 50 50 46 43 41 38 33 32 32 30 30 29 25 22 22 22 20 21
27 28 28 27 25 22 26 18 23 21 22 20 25 26 26 27 26 26 27 27 28 31 37 40 42 45 62 64 62 61 59 56 50 46 42 39 35 33 32 31 31 30 27 23 22 22 22 22 18
27 29 27 27 25 25 24 21 21 22 20 19 19 16 18 24 26 26 26 27 28 28 31 36 42 44 55 63 61 60 58 52 45 42 38 35 33 32 32 31 30 28 24 22 21 20 19 21 20
29 27 26 26 25 19 21 19 14 15 17 17 16 14 14 18 21 24 24 26 28 29 29 34 39 45 59 62 61 60 54 45 43 40 36 33 33 32 31 30 29 25 22 23 22 22 20 20 19
29 25 20 19 20 14 21 21 17 16 17 17 16 17 16 16 17 19 22 32 33 35 35 35 40 48 61 60 58 56 50 45 43 39 37 32 32 31 29 28 26 25 24 24 24 22 21 20 19
28 25 19 10 17 19 21 17 17 19 19 17 16 16 17 17 18 20 31 33 35 36 36 38 39 48 60 60 57 55 47 44 42 39 36 33 31 30 28 27 26 26 25 24 24 23 21 20 20
28 25 27 23 22 19 18 17 17 17 16 18 19 19 19 18 19 21 31 36 37 37 38 38 40 50 60 59 58 54 44 41 38 37 34 34 31 29 26 26 24 24 24 23 22 21 16 17 20
28 28 23 24 14 14 16 16 14 15 16 18 23 23 24 27 28 28 28 36 38 37 38 39 40 53 59 58 57 44 42 39 37 34 32 31 30 27 26 25 24 21 20 20 20 18 17 16 18
28 27 27 25 25 19 18 17 18 19 20 20 19 20 23 23 24 25 31 38 38 38 38 39 41 54 57 56 47 43 40 37 35 34 31 31 28 27 23 21 20 20 18 18 18 17 17 16 17
29 27 27 21 19 23 22 20 22 21 22 23 24 24 23 27 28 29 36 38 38 38 39 41 45 54 55 48 44 42 37 35 33 32 31 31 28 25 24 20 19 18 16 15 14 14 15 16 17

GFSSGP_sfc_30mbdewp_018.txt.gz
Dewpoint
61 58 54 43 33 34 30 31 34 31 26 29 28 28 28 38 35 38 59 66 69 70 71 70 69 68 66 65 64 65 66 66 67 66 66 66 64 62 61 59 60 60 60 62 64 64 64 63 63
61 53 44 40 34 30 28 32 30 29 29 28 28 28 31 46 53 60 61 68 69 70 70 70 69 67 66 64 65 66 66 67 68 67 66 63 61 60 58 58 60 60 60 60 61 61 62 61 61
58 54 40 37 34 28 27 31 27 28 28 29 29 29 38 47 54 59 65 68 69 70 69 70 69 67 66 64 67 65 63 64 65 66 65 62 60 60 59 59 59 60 62 62 63 63 62 62 62
49 46 40 34 33 33 31 30 30 30 27 29 30 29 44 52 55 58 68 68 69 69 69 70 69 68 67 66 67 64 62 62 64 65 66 63 62 62 60 60 61 63 63 64 64 64 64 64 64
49 42 35 33 31 33 32 32 32 29 26 26 30 29 44 54 56 66 67 68 68 68 70 70 70 68 67 66 67 66 63 62 63 64 64 63 63 63 63 62 62 63 63 65 65 65 65 66 65
43 41 35 27 31 32 31 31 29 28 27 27 28 27 43 55 58 64 67 67 67 68 69 70 70 69 69 67 65 66 64 64 64 64 65 64 63 64 64 63 63 64 64 65 65 66 66 65 64
41 37 35 32 31 31 31 31 28 28 28 27 27 27 49 54 56 61 65 66 66 67 69 69 69 69 69 69 66 65 65 65 65 66 66 66 66 64 65 64 65 64 65 66 66 66 65 63 58
41 39 35 32 30 30 31 30 28 28 27 29 29 38 49 54 56 57 65 66 67 67 67 68 69 69 69 69 67 65 66 65 65 67 66 65 67 66 66 65 66 64 66 65 65 64 61 57 51
42 38 36 34 32 31 33 33 33 31 29 29 30 34 50 56 57 57 65 66 67 67 67 68 68 68 68 68 67 66 66 66 66 67 64 64 67 67 67 66 66 66 66 64 61 58 55 52 50
39 38 38 38 37 35 34 34 35 32 29 29 30 47 54 56 57 56 61 65 65 66 67 67 68 68 68 67 67 66 65 65 66 66 64 61 65 66 66 66 66 66 65 62 57 51 47 37 32
39 37 39 39 39 37 35 35 38 34 30 31 30 47 51 51 55 56 57 63 66 66 66 67 67 67 67 66 66 66 65 64 65 65 64 62 62 64 65 65 65 65 62 58 51 41 31 26 25
37 38 38 38 38 37 35 36 36 37 34 36 39 37 36 46 47 53 56 58 62 66 66 67 67 67 67 66 66 65 64 63 63 64 63 62 60 62 62 62 63 62 58 52 44 29 26 24 21
36 37 37 37 38 37 36 35 34 37 39 39 39 39 37 37 38 43 50 55 57 61 66 66 67 66 67 66 65 64 64 63 62 62 62 60 59 60 61 61 62 60 53 34 29 27 25 23 22
36 35 36 36 37 38 36 36 36 37 38 38 38 37 37 37 38 39 40 42 45 57 60 66 67 67 66 65 64 63 63 63 62 61 61 58 59 59 59 59 57 43 33 28 25 25 24 24 23
38 36 37 37 37 37 37 34 36 37 37 37 38 38 38 37 37 37 38 39 41 42 58 61 66 66 66 65 65 64 63 63 62 61 60 57 57 57 56 52 39 31 28 24 26 26 25 23 21
36 36 33 35 35 35 36 31 34 36 37 37 37 38 38 38 37 37 38 38 39 41 48 60 64 66 66 65 65 64 63 62 62 61 59 55 57 53 48 39 32 29 26 25 26 26 22 21 19
34 31 32 33 35 34 35 33 34 35 35 34 34 34 34 36 37 37 37 37 38 39 41 56 62 64 65 65 65 64 62 62 61 61 58 56 54 49 42 35 32 28 26 27 26 25 22 17 18
28 32 32 31 29 32 30 34 34 33 33 32 31 30 30 32 35 36 36 36 37 37 39 47 61 63 64 65 65 64 62 62 62 61 59 55 52 46 39 34 29 28 27 27 26 24 22 20 20
31 31 30 30 30 26 25 24 25 26 26 26 26 26 26 27 30 33 35 35 35 35 36 42 57 62 64 64 64 63 61 62 62 61 57 53 48 43 36 31 29 28 27 27 25 23 19 18 21
34 32 30 29 28 26 26 25 26 26 26 27 26 26 26 26 27 29 31 32 33 34 35 36 47 61 63 64 63 63 62 62 62 59 52 50 46 39 34 31 29 29 28 26 25 24 22 21 20
31 28 28 27 27 26 25 19 19 23 25 26 26 27 27 27 27 27 27 28 30 31 33 35 39 56 63 63 63 59 57 55 54 53 50 45 41 36 33 32 30 29 28 26 24 24 23 19 19
28 28 28 27 25 21 26 17 22 20 20 22 22 25 27 27 27 27 27 27 28 29 30 33 37 48 63 64 63 59 59 59 56 54 50 45 39 35 33 32 30 30 29 24 22 23 23 22 18
28 28 27 27 25 24 24 22 19 21 17 18 20 21 21 21 25 27 27 27 28 28 28 32 36 44 61 63 62 61 59 59 53 49 48 44 37 35 34 32 31 30 27 24 22 21 22 21 21
30 27 26 27 24 17 19 20 16 13 17 17 17 17 15 15 18 23 24 25 26 29 29 29 32 39 55 63 62 61 60 53 49 47 44 40 36 34 34 33 32 29 25 23 22 21 21 20 19
27 25 16 16 18 11 22 21 19 18 18 18 19 18 18 17 17 18 19 27 33 34 36 36 35 35 49 62 62 61 56 52 51 47 45 39 36 34 34 33 30 27 25 25 23 22 20 19 18
27 24 15 7 12 18 22 18 15 20 21 19 18 18 18 17 18 18 20 30 35 36 37 37 38 40 54 60 60 60 54 51 49 47 44 40 37 36 35 32 29 28 27 25 24 22 21 20 20
28 26 26 23 22 19 18 18 17 18 16 21 23 23 25 26 25 22 23 34 37 37 34 35 37 38 49 58 58 55 49 48 47 45 41 40 39 37 34 30 29 28 26 25 23 22 20 20 20
27 28 23 22 9 12 16 17 14 15 17 21 21 20 23 24 25 27 28 30 37 37 35 37 38 38 43 56 58 53 49 48 46 44 41 38 38 36 32 29 28 27 24 23 24 22 19 18 20
28 27 26 24 22 16 16 16 19 18 18 21 23 25 25 26 26 26 28 29 38 38 38 38 38 39 42 55 57 48 47 45 44 42 39 36 36 32 28 28 27 25 23 22 20 19 17 16 18
29 27 26 19 17 24 22 20 22 22 23 25 26 30 34 33 31 29 31 35 38 39 39 39 40 43 46 56 50 45 43 42 40 38 36 36 31 29 28 28 25 23 23 22 17 17 17 16 17